星链-32924 (STARLINK-32924)

导读

STARLINK-32924是美国SpaceX星链星座的卫星,于2025年2月23日发射。星链项目旨在构建全球卫星互联网星座,为全球各地提供高速低延迟宽带网络服务,尤其覆盖偏远和网络基础设施薄弱区域。该卫星延续星链设计,承担卫星互联网通信节点任务,是星链星座大规模扩容建设中的一环,推动全球网络覆盖范围进一步拓展。

基本信息
目录编号:
63092
目录名称:
STARLINK-32924
国际标识:
2025-037R
轨道中心:
EARTH
卫星名称:
星链-32924
卫星全名:
星链-32924 (STARLINK-32924)
卫星状态:
在轨 (已飞行558 天)
发射日期:
2025-02-23 UTC
国别 :
美国 (US)
星等 :
--
轨道信息
数据来源 国际轨道数据
星历时间: 2026-09-04T14:00:02+0800
6小时前
查看轨道信息
半长轴: 6875.421km
偏心率: 0.0004573
轨道倾角: 70.004°
近地点辐角 250.703°
升交点赤经 263.807°
平近点角 343.178°
近地点: 494.139km
远地点: 500.429km
周期: 94.560分钟
每日圈数: 15.228387
详细信息
固有亮度:
5
最大亮度:
2.5
卫星平台:
Starlink V1.0
覆盖范围:
全球
运营商:
太空探索技术公司
运营商所在国:
美国
制造商(研发单位):
太空探索技术公司
制造商所在国:
美国
使用方式:
暂无
卫星简介
Starlink 计划是 SpaceX 推出的全球卫星互联网项目,通过发射低轨道卫星,为全球尤其是偏远地区提供高速、低延迟的互联网服务。自 2019 年起,Starlink 已部署数千颗卫星,旨在缩小全球数字鸿沟,推动互联网普及。该项目还为军事、航空等行业提供通信支持,带来广泛经济效益。
2D轨道图
3D轨道图
轨道高度分析图
轨道倾角分析图
轨道综合分析图
查看轨道综合分析图
交会数据列表
事件ID 空间交会对象 最接近时刻(TCA) 交会距离 交会风险概率(CRP) 交会风险指数(CRI) 操作
CDM_260902-034306-309206-548921
2026-09-02T
03:43:33+0000
0.933 km
远距离
3.457604E-5 中风险 0.66
CDM_260831-233906-309206-858221
2026-08-31T
23:39:51+0000
1.485 km
极远距离
5.435275E-6 低风险 0.5
CDM_260905-022505-770306-309221
2026-09-05T
02:25:32+0000
1.429 km
极远距离
5.345106E-6 低风险 0.5
CDM_260905-194306-309206-543921
2026-09-05T
19:43:49+0000
1.649 km
极远距离
4.98514E-6 低风险 0.49
CDM_260905-185606-309206-543921
2026-09-05T
18:56:50+0000
2.702 km
极远距离
1.553979E-6 低风险 0.39
CDM_260905-171604-783806-309221
2026-09-05T
17:16:36+0000
2.520 km
极远距离
1.551587E-6 低风险 0.39
CDM_260905-101304-783806-309221
2026-09-05T
10:13:42+0000
2.681 km
极远距离
1.399067E-6 低风险 0.38
CDM_260905-022505-924106-309221
2026-09-05T
02:25:03+0000
2.348 km
极远距离
1.195579E-6 低风险 0.37
CDM_260905-020105-714706-309221
2026-09-05T
02:01:14+0000
2.595 km
极远距离
1.13131E-6 低风险 0.36
CDM_260905-235705-479106-309221
2026-09-05T
23:57:26+0000
2.460 km
极远距离
8.433295E-7 极低风险 0.34